KE8WAY Weather Reports


Display with metric or nautical units.
time (UTC)temp
F
wind
direction
speed
MPH
gust
MPH
rain 1hr
in
rain 24hr
in
rain mn
in
humidity
%
barometer
mb
20260510225125 61 356 4.0 5.0 0.00 0.00 0.00 35 1017.7
20260510224621 61 35 3.0 3.0 0.00 0.00 0.00 33 1017.7
20260510224118 61 355 6.0 7.0 0.00 0.00 0.00 35 1017.7
20260510223616 60 26 7.0 7.0 0.00 0.00 0.00 35 1017.9
20260510223112 61 26 4.0 6.0 0.00 0.00 0.00 34 1017.8
20260510222609 61 30 2.0 3.0 0.00 0.00 0.00 36 1017.7
20260510222106 60 324 2.0 2.0 0.00 0.00 0.00 35 1017.9
20260510221601 61 345 5.0 5.0 0.00 0.00 0.00 33 1017.8
20260510221058 62 39 0.0 0.0 0.00 0.00 0.00 30 1017.6
20260510220555 62 81 2.0 2.0 0.00 0.00 0.00 30 1017.5
20260510220050 61 349 4.0 5.0 0.00 0.00 0.00 33 1017.5
20260510215548 61 44 5.0 6.0 0.00 0.00 0.00 35 1017.5
20260510215046 62 26 6.0 7.0 0.00 0.00 0.00 31 1017.3
20260510214543 63 90 1.0 2.0 0.00 0.00 0.00 30 1017.0
20260510214039 62 60 0.0 0.0 0.00 0.00 0.00 31 1017.3
20260510213537 61 26 1.0 1.0 0.00 0.00 0.00 32 1017.2
20260510213032 60 94 0.0 0.0 0.00 0.00 0.00 34 1017.2
20260510212529 61 27 1.0 2.0 0.00 0.00 0.00 32 1017.3
20260510212026 61 73 3.0 3.0 0.00 0.00 0.00 31 1017.0
20260510211523 61 63 2.0 3.0 0.00 0.00 0.00 33 1017.0
20260510211018 62 74 6.0 7.0 0.00 0.00 0.00 32 1016.9
20260510210514 61 52 8.0 9.0 0.00 0.00 0.00 33 1016.8
20260510210009 60 76 6.0 8.0 0.00 0.00 0.00 35 1017.1
20260510205508 60 67 7.0 8.0 0.00 0.00 0.00 37 1016.8
20260510205003 60 57 5.0 7.0 0.00 0.00 0.00 35 1016.8
20260510204500 61 33 6.0 7.0 0.00 0.00 0.00 38 1016.6
20260510203956 61 16 6.0 8.0 0.00 0.00 0.00 33 1016.7
20260510203454 61 334 3.0 3.0 0.00 0.00 0.00 36 1016.7
20260510202949 61 15 4.0 5.0 0.00 0.00 0.00 32 1016.8
20260510202445 60 36 6.0 6.0 0.00 0.00 0.00 35 1016.9
20260510201942 61 22 7.0 8.0 0.00 0.00 0.00 34 1016.9
20260510201439 61 156 4.0 5.0 0.00 0.00 0.00 33 1017.4
20260510200936 62 135 3.0 3.0 0.00 0.00 0.00 32 1017.1
20260510200430 62 12 6.0 8.0 0.00 0.00 0.00 32 1017.1
20260510195924 63 14 6.0 7.0 0.00 0.00 0.00 35 1017.1
20260510195422 66 146 5.0 7.0 0.00 0.00 0.00 31 1017.0
20260510194917 63 49 4.0 5.0 0.00 0.00 0.00 28 1017.1
20260510194413 60 90 4.0 5.0 0.00 0.00 0.00 34 1017.2
20260510193909 60 115 4.0 6.0 0.00 0.00 0.00 34 1017.0
20260510193404 60 38 2.0 2.0 0.00 0.00 0.00 35 1017.2
20260510192900 60 90 5.0 6.0 0.00 0.00 0.00 36 1017.3
20260510192355 61 28 8.0 10.0 0.00 0.00 0.00 31 1017.0
20260510191851 60 65 3.0 3.0 0.00 0.00 0.00 33 1017.3
20260510191347 61 23 12.0 15.0 0.00 0.00 0.00 31 1017.2
20260510190845 61 40 6.0 7.0 0.00 0.00 0.00 32 1017.3
20260510190342 62 344 5.0 6.0 0.00 0.00 0.00 34 1017.2
20260510185838 62 30 7.0 8.0 0.00 0.00 0.00 40 1017.3
20260510185336 62 0 2.0 2.0 0.00 0.00 0.00 27 1017.3
20260510184833 63 23 12.0 14.0 0.00 0.00 0.00 28 1017.2
20260510184331 63 357 4.0 5.0 0.00 0.00 0.00 32 1017.2
20260510183829 62 340 10.0 10.0 0.00 0.00 0.00 32 1017.3
20260510183325 62 313 5.0 7.0 0.00 0.00 0.00 27 1017.1
20260510182821 62 237 5.0 7.0 0.00 0.00 0.00 27 1017.2
20260510182318 62 225 12.0 14.0 0.00 0.00 0.00 27 1017.0
20260510181814 62 302 9.0 10.0 0.00 0.00 0.00 28 1017.4
20260510181311 62 44 11.0 17.0 0.00 0.00 0.00 33 1017.4
20260510180807 60 18 10.0 11.0 0.00 0.00 0.00 32 1017.1
20260510180305 60 20 6.0 10.0 0.00 0.00 0.00 33 1017.0
20260510175801 62 25 8.0 9.0 0.00 0.00 0.00 30 1016.9
20260510175257 62 310 7.0 9.0 0.00 0.00 0.00 28 1016.9
20260510174754 61 153 1.0 1.0 0.00 0.00 0.00 34 1016.9
20260510174251 60 333 8.0 9.0 0.00 0.00 0.00 32 1016.9
20260510173747 59 70 9.0 9.0 0.00 0.00 0.00 31 1017.0
20260510173243 60 308 11.0 15.0 0.00 0.00 0.00 34 1017.0
20260510172739 60 10 11.0 11.0 0.00 0.00 0.00 32 1017.1
20260510172235 60 43 4.0 6.0 0.00 0.00 0.00 34 1016.8
20260510171732 60 352 9.0 10.0 0.00 0.00 0.00 32 1017.2
20260510171229 59 343 9.0 11.0 0.00 0.00 0.00 34 1017.0
20260510170726 59 5 9.0 11.0 0.00 0.00 0.00 36 1017.4
20260510170222 60 19 7.0 11.0 0.00 0.00 0.00 34 1017.0
20260510165718 60 355 12.0 16.0 0.00 0.00 0.00 35 1017.1
20260510165214 58 340 7.0 8.0 0.00 0.00 0.00 35 1017.0
20260510164712 59 345 7.0 8.0 0.00 0.00 0.00 33 1017.3
20260510164209 59 306 7.0 8.0 0.00 0.00 0.00 34 1017.3
20260510163704 59 344 10.0 14.0 0.00 0.00 0.00 36 1017.2
20260510163200 59 24 6.0 8.0 0.00 0.00 0.00 34 1017.4
20260510162700 58 13 11.0 13.0 0.00 0.00 0.00 36 1017.3
20260510162157 58 20 10.0 13.0 0.00 0.00 0.00 36 1017.3
20260510161652 58 342 5.0 6.0 0.00 0.00 0.00 36 1017.3
20260510161149 58 347 13.0 15.0 0.00 0.00 0.00 35 1017.1
20260510160646 58 15 7.0 8.0 0.00 0.00 0.00 35 1017.3
20260510160142 59 14 13.0 18.0 0.00 0.00 0.00 37 1017.2
20260510155638 58 21 8.0 10.0 0.00 0.00 0.00 38 1017.1
20260510155134 57 328 2.0 3.0 0.00 0.00 0.00 35 1017.1
20260510154629 57 14 9.0 11.0 0.00 0.00 0.00 38 1017.0
20260510154125 56 23 13.0 14.0 0.00 0.00 0.00 38 1017.1
20260510153621 57 28 13.0 15.0 0.00 0.00 0.00 37 1017.1
20260510153117 57 22 10.0 11.0 0.00 0.00 0.00 36 1017.1
20260510152614 57 22 7.0 9.0 0.00 0.00 0.00 38 1016.9
20260510152110 56 348 10.0 11.0 0.00 0.00 0.00 37 1016.9
20260510151607 57 352 9.0 10.0 0.00 0.00 0.00 39 1016.8
20260510120405 50 21 9.0 9.0 0.00 0.00 0.00 71 1015.5
20260510115901 50 25 8.0 9.0 0.00 0.00 0.00 71 1015.4
20260510115357 50 22 8.0 11.0 0.00 0.00 0.00 71 1015.2
20260510114854 50 17 10.0 11.0 0.00 0.00 0.00 70 1015.1
20260510114351 50 19 10.0 11.0 0.00 0.00 0.00 71 1015.0
20260510113851 50 15 11.0 13.0 0.00 0.00 0.00 72 1015.1
20260510113347 49 3 9.0 9.0 0.00 0.00 0.00 73 1014.7
20260510112844 49 22 10.0 11.0 0.00 0.00 0.00 73 1014.9
20260510112341 49 26 7.0 8.0 0.00 0.00 0.00 74 1014.8
20260510111837 49 16 11.0 14.0 0.00 0.00 0.00 73 1014.8
20260510111334 48 18 8.0 9.0 0.00 0.00 0.00 75 1014.6
20260510110834 48 23 5.0 7.0 0.00 0.00 0.00 74 1014.6
20260510110332 49 46 9.0 11.0 0.00 0.00 0.00 72 1014.5
20260510105827 49 44 8.0 9.0 0.00 0.00 0.00 72 1014.2
20260510105327 49 20 6.0 7.0 0.00 0.00 0.00 72 1014.2
20260510104824 49 28 10.0 11.0 0.00 0.00 0.00 71 1014.1
20260510104321 49 20 7.0 9.0 0.00 0.00 0.00 73 1014.0
20260510103817 49 40 14.0 18.0 0.00 0.00 0.00 73 1013.9
20260510103314 49 29 9.0 11.0 0.00 0.00 0.00 76 1013.7
20260510102809 50 14 9.0 9.0 0.00 0.00 0.00 74 1013.6
20260510102306 50 35 7.0 8.0 0.00 0.00 0.00 72 1013.3
20260510101803 50 40 7.0 9.0 0.00 0.00 0.00 72 1013.3
20260510101301 50 30 10.0 11.0 0.00 0.00 0.00 74 1013.2
20260510100756 49 47 9.0 9.0 0.00 0.00 0.00 78 1013.3
20260510100255 49 15 9.0 10.0 0.00 0.00 0.00 80 1013.0
20260510095750 48 13 8.0 8.0 0.00 0.00 0.00 80 1012.9
20260510095246 50 24 6.0 7.0 0.00 0.00 0.00 77 1012.7
20260510094744 50 22 8.0 9.0 0.00 0.00 0.00 74 1012.6
20260510094240 50 50 7.0 8.0 0.00 0.00 0.00 71 1012.7
20260510093737 49 8 6.0 7.0 0.00 0.00 0.00 71 1012.4
20260510093234 49 19 7.0 9.0 0.00 0.00 0.00 68 1012.5
20260510092730 49 21 7.0 8.0 0.00 0.00 0.00 68 1012.2
20260510092226 50 20 6.0 7.0 0.00 0.00 0.00 67 1012.4
20260510091722 51 10 4.0 6.0 0.00 0.00 0.00 66 1012.2
20260510091218 51 30 3.0 3.0 0.00 0.00 0.00 67 1012.2
20260510090715 50 25 3.0 3.0 0.00 0.00 0.00 68 1011.8
20260510090212 50 28 2.0 2.0 0.00 0.00 0.00 70 1012.0
20260510085707 51 37 1.0 1.0 0.00 0.00 0.00 72 1011.9
20260510085202 52 33 1.0 2.0 0.00 0.00 0.00 68 1011.8
20260510084658 51 60 2.0 2.0 0.00 0.00 0.00 66 1011.8
20260510084154 52 55 1.0 1.0 0.00 0.00 0.00 65 1011.6
20260510083646 52 66 1.0 1.0 0.00 0.00 0.00 65 1011.7
20260510083143 52 38 1.0 1.0 0.00 0.00 0.00 65 1011.6
20260510082639 53 68 1.0 2.0 0.00 0.00 0.00 65 1011.4
20260510082135 52 53 2.0 2.0 0.00 0.00 0.00 66 1011.5
20260510081629 53 52 2.0 2.0 0.00 0.00 0.00 65 1011.4
20260510081126 53 72 2.0 2.0 0.00 0.00 0.00 65 1011.2
20260510080625 53 72 1.0 2.0 0.00 0.00 0.00 67 1011.2
20260510080122 52 90 2.0 2.0 0.00 0.00 0.00 68 1011.1
20260510075619 53 69 2.0 2.0 0.00 0.00 0.00 69 1011.1
20260510075116 53 94 1.0 2.0 0.00 0.00 0.00 69 1011.0
20260510074613 53 60 1.0 2.0 0.00 0.00 0.00 70 1011.0
20260510074108 53 64 2.0 2.0 0.00 0.00 0.00 69 1010.9
20260510073559 52 88 2.0 3.0 0.00 0.00 0.00 70 1010.8
20260510073057 52 45 2.0 2.0 0.00 0.00 0.00 69 1010.8
20260510072553 52 44 3.0 3.0 0.00 0.00 0.00 70 1010.9
20260510072048 53 45 2.0 2.0 0.00 0.00 0.00 69 1010.8
20260510071545 52 30 3.0 3.0 0.00 0.00 0.00 69 1010.6
20260510071043 52 38 3.0 3.0 0.00 0.00 0.00 70 1010.3
20260510070539 53 62 2.0 2.0 0.00 0.00 0.00 69 1010.5
20260510070036 53 59 2.0 2.0 0.00 0.00 0.00 68 1010.5
20260510065533 53 35 2.0 2.0 0.00 0.00 0.00 69 1010.1
20260510065029 52 50 3.0 5.0 0.00 0.00 0.00 70 1010.3
20260510064526 53 49 4.0 6.0 0.00 0.00 0.00 69 1010.0
20260510064022 53 67 4.0 5.0 0.00 0.00 0.00 64 1009.8
20260510063519 55 23 4.0 5.0 0.00 0.00 0.00 59 1009.8
20260510063017 55 344 2.0 2.0 0.00 0.00 0.00 58 1009.8
20260510062512 55 5 1.0 2.0 0.00 0.00 0.00 58 1009.5
20260510062007 55 12 2.0 2.0 0.00 0.00 0.00 58 1009.6
20260510061504 56 15 3.0 3.0 0.00 0.00 0.00 56 1009.5
20260510061001 56 353 2.0 2.0 0.00 0.00 0.00 56 1009.5
20260510060458 56 347 4.0 5.0 0.00 0.00 0.00 57 1009.5
20260510055953 56 1 5.0 6.0 0.00 0.00 0.00 56 1009.0
20260510055449 57 13 5.0 6.0 0.00 0.00 0.00 55 1009.3
20260510054948 56 16 5.0 6.0 0.00 0.00 0.00 56 1009.1
20260510054442 57 10 4.0 5.0 0.00 0.00 0.00 55 1009.3
20260510053938 57 14 8.0 9.0 0.00 0.00 0.00 53 1009.4
20260510053434 58 349 8.0 9.0 0.00 0.00 0.00 52 1009.2
20260510052930 58 350 9.0 10.0 0.00 0.00 0.00 51 1009.3
20260510052426 58 343 9.0 11.0 0.00 0.00 0.00 50 1009.1
20260510051922 58 8 8.0 9.0 0.00 0.00 0.00 51 1009.3
20260510051419 58 348 9.0 10.0 0.00 0.00 0.00 50 1009.1
20260510050915 58 319 8.0 10.0 0.00 0.00 0.00 52 1008.8
20260510050412 58 11 10.0 13.0 0.00 0.00 0.00 52 1008.5
20260510045909 59 11 11.0 13.0 0.00 0.00 0.00 53 1008.5
20260510045406 59 6 13.0 15.0 0.00 0.00 0.00 52 1008.2
20260510044903 59 13 13.0 15.0 0.00 0.00 0.00 52 1008.1
20260510044400 58 11 11.0 11.0 0.00 0.00 0.00 57 1008.0
20260510043857 59 12 7.0 8.0 0.00 0.00 0.00 57 1008.1
20260510043352 59 355 8.0 11.0 0.00 0.00 0.00 56 1008.0
20260510042851 59 348 8.0 9.0 0.00 0.00 0.00 55 1008.0
20260510042346 60 352 9.0 10.0 0.00 0.00 0.00 54 1007.8
20260510041842 60 335 8.0 10.0 0.00 0.00 0.00 55 1007.6
20260510041340 60 344 5.0 6.0 0.00 0.00 0.00 56 1007.5
20260510040837 60 348 7.0 7.0 0.00 0.00 0.00 57 1007.2
20260510010626 60 208 7.0 7.0 0.00 0.00 0.00 75 1004.2
20260510010124 60 211 6.0 7.0 0.00 0.00 0.00 75 1004.3
20260510005619 60 218 5.0 6.0 0.00 0.00 0.00 73 1004.3
20260510005117 60 218 5.0 6.0 0.00 0.00 0.00 73 1003.9
20260510004615 60 207 5.0 6.0 0.00 0.00 0.00 73 1004.0
20260510004113 61 211 7.0 8.0 0.00 0.00 0.00 73 1004.0
20260510003609 61 207 7.0 8.0 0.00 0.00 0.00 73 1003.8
20260510003105 61 215 6.0 7.0 0.00 0.00 0.00 72 1004.0
20260510002600 61 216 7.0 7.0 0.00 0.00 0.00 71 1003.9
20260510002058 62 212 7.0 8.0 0.00 0.00 0.00 70 1004.0
20260510001555 63 228 7.0 8.0 0.00 0.00 0.00 69 1003.7
20260510001054 63 220 7.0 7.0 0.00 0.00 0.00 68 1003.8
20260510000554 64 222 10.0 13.0 0.00 0.00 0.00 66 1003.7
20260510000051 64 221 9.0 11.0 0.00 0.00 0.00 66 1004.1
20260509235547 64 221 11.0 11.0 0.00 0.00 0.00 65 1004.0
20260509235044 64 210 12.0 13.0 0.00 0.00 0.00 64 1003.9
20260509234540 65 218 13.0 15.0 0.00 0.00 0.00 63 1004.0
20260509234038 65 211 12.0 13.0 0.00 0.00 0.00 63 1003.8
20260509233536 65 220 10.0 11.0 0.00 0.00 0.00 63 1004.1
20260509233033 65 210 12.0 14.0 0.00 0.00 0.00 61 1003.9
20260509232529 65 225 17.0 20.0 0.00 0.00 0.00 60 1003.9
20260509232026 65 224 12.0 13.0 0.00 0.00 0.00 63 1003.9
20260509231522 66 233 11.0 13.0 0.00 0.00 0.00 62 1003.7
20260509231020 66 230 17.0 20.0 0.00 0.00 0.00 60 1004.1
20260509230517 65 228 16.0 17.0 0.00 0.00 0.00 61 1003.9
20260509230015 65 224 17.0 22.0 0.00 0.00 0.00 60 1003.9